Weather History for EGXG - November, 2011

Change the Weather History Date:

Wednesday, November 2, 2011

  Actual Average Record
Temperature  
Mean Temperature 48 °F -  
Max Temperature 57 °F - - ()
Min Temperature 39 °F - - ()
Degree Days  
Heating Degree Days 17    
Moisture  
Dew Point 47 °F    
Average Humidity 86    
Maximum Humidity 100    
Minimum Humidity 68    
Precipitation  
Precipitation 0.01 in - - ()
Sea Level Pressure  
Sea Level Pressure 29.58 in    
Wind  
Wind Speed 8 mph ()    
Max Wind Speed 15 mph    
Max Gust Speed -    
Visibility 5.8 miles    
Events Rain    
T = Trace of Precipitation, MM = Missing Value Source: Averaged Metar Reports

Daily Weather History Graph

Daily Weather History Graph

Search for Another Location

Airport or City:

Trip Planner

Search our weather history database for the weather conditions in past years. The results will help you decide how hot, cold, wet, or windy it might be!

Date:

Astronomy

Nov. 02, 2011 Rise Set
Actual Time 7:05 AM GMT 4:29 PM GMT
Civil Twilight 6:28 AM GMT 5:07 PM GMT
Nautical Twilight 5:46 AM GMT 5:49 PM GMT
Astronomical Twilight 5:05 AM GMT 6:29 PM GMT
Moon 1:19 PM GMT (11/2) 11:03 PM GMT (11/2)
Length of Visible Light 10h 38m
Length of Day
9h 23m
Waxing Crescent, 48% of the Moon is Illuminated
Nov 2
Waxing Crescent
Nov 2
First Quarter
Nov 10
Full
Nov 18
Last Quarter
Nov 25
New

Hourly Weather History & Observations

Time (GMT) Temp. Windchill Dew Point Humidity Pressure Visibility Wind Dir Wind Speed Gust Speed Precip Events Conditions
12:50 AM 41.0 °F 38.0 °F 39.2 °F 93% 29.80 in 6.2 mi SE 4.6 mph - N/A   Unknown
2:50 AM 39.2 °F 35.9 °F 39.2 °F 100% 29.77 in 4.3 mi SE 4.6 mph - N/A   Unknown
4:50 AM 42.8 °F 38.6 °F 41.0 °F 93% 29.74 in 6.2 mi SE 6.9 mph - N/A   Unknown
5:50 AM 42 °F - 41 °F 96% 29.75 in 4 mi ESE 3.5 mph - -   Mist
5:50 AM 42.8 °F 41.1 °F 41.0 °F 93% 29.74 in 4.3 mi ESE 3.5 mph - N/A   Mostly Cloudy
7:50 AM 42.8 °F 38.6 °F 42.8 °F 100% 29.74 in 3.7 mi SSE 6.9 mph - N/A   Mostly Cloudy
8:50 AM 46.4 °F 41.9 °F 44.6 °F 93% 29.71 in 2.5 mi SSE 9.2 mph - N/A   Mostly Cloudy
9:50 AM 48.2 °F - 46.4 °F 93% 29.68 in 4.3 mi SSE 8.1 mph - N/A   Overcast
10:50 AM 51.8 °F - 48.2 °F 88% 29.65 in 6.2 mi SSE 12.7 mph - N/A   Mostly Cloudy
11:50 AM 54 °F - 49 °F 76% 29.65 in 12 mi SSE 9.2 mph - -   Scattered Clouds
11:50 AM 53.6 °F - 48.2 °F 82% 29.65 in 6.2 mi SSE 9.2 mph - N/A   Mostly Cloudy
12:50 PM 55.4 °F - 48.2 °F 77% 29.62 in 6.2 mi SSE 15.0 mph - N/A   Mostly Cloudy
1:50 PM 55.4 °F - 48.2 °F 77% 29.59 in 6.2 mi SSE 13.8 mph - N/A   Mostly Cloudy
2:50 PM 55 °F - 48 °F 71% 29.57 in 25 mi SE 12.7 mph - -   Scattered Clouds
2:50 PM 55.4 °F - 48.2 °F 77% 29.56 in 6.2 mi SE 12.7 mph - N/A   Mostly Cloudy
3:50 PM 55.4 °F - 48.2 °F 77% 29.53 in 6.2 mi SE 9.2 mph - N/A   Mostly Cloudy
4:50 PM 55.4 °F - 48.2 °F 77% 29.50 in 6.2 mi SE 13.8 mph - N/A   Mostly Cloudy
5:50 PM 54 °F - 47 °F 68% 29.51 in 17 mi SE 15.0 mph - -   Scattered Clouds
5:50 PM 55.4 °F - 46.4 °F 72% 29.50 in 6.2 mi SE 15.0 mph - N/A   Overcast
6:50 PM 53.6 °F - 48.2 °F 82% 29.50 in 6.2 mi SE 15.0 mph - N/A   Mostly Cloudy
7:50 PM 53.6 °F - 48.2 °F 82% 29.47 in 6.2 mi SE 11.5 mph - N/A   Mostly Cloudy
8:50 PM 54 °F - 50 °F 81% 29.46 in 6 mi SE 12.7 mph - -   Light Haze
8:50 PM 53.6 °F - 50.0 °F 88% 29.44 in 5.6 mi SE 12.7 mph - N/A   Haze
9:50 PM 53.6 °F - 51.8 °F 94% 29.42 in 3.1 mi SE 9.2 mph - N/A   Light Drizzle
10:50 PM 53.6 °F - 51.8 °F 94% 29.42 in 3.1 mi SE 8.1 mph - N/A   Overcast
11:50 PM 54 °F - 53 °F 93% 29.39 in 4 mi SE 8.1 mph - - Rain Light Drizzle
11:50 PM 53.6 °F - 51.8 °F 94% 29.39 in 3.7 mi SE 8.1 mph - N/A   Light Drizzle